User: anonymous   Login
Location: Handeloh
(53.2500°N, 9.8330°E)
Time: 02:01:25
(UTC+01:00)
Language:

Explorer 7 - Orbit

View from above orbital plane
View from above orbital plane
View from above satellite
View from above satellite

Ground track
Ground track

The orbit data is extracted from the following two-line orbital elements,

1    22U 59009A   19326.49731039  .00000117  00000-0  31940-4 0  9994
2    22  50.2852 357.6840 0140066 184.3480 175.6260 14.94993585194217
Epoch (UTC): 22 November 2019 11:56:07
Eccentricity: 0.0140066
inclination: 50.2852°
perigee height: 485 km
apogee height: 680 km
right ascension of ascending node: 357.6840°
argument of perigee: 184.3480°
revolutions per day: 14.94993585
mean anomaly at epoch: 175.6260°
orbit number at epoch: 19421

The dashed part of the orbit path shows where the satellite is in the earth's shadow,  

DLR